Regional Weather Roundup
Issued by NWS

Home | Current Version | Previous Version | Text Only | Print | Product List | Glossary On
Versions: 1 2 3 4 5 6 7 8 9 10 11 12 13 14 15 16 17 18 19 20 21 22 23 24 25 26 27 28 29 30 31 32 33 34 35 36 37 38 39 40 41 42 43 44 45 46 47 48 49 50
000
ASUS45 KSLC 210110
RWRUT

UTAH REGIONAL WEATHER ROUNDUP
NATIONAL WEATHER SERVICE SALT LAKE CITY UT
600 PM MST SAT DEC 20 2014

UTZ001>011-023>025-210200-

NORTHERN UTAH

CITY           SKY/WX    TMP DP  RH WIND       PRES   REMARKS
BRIGHAM CITY   CLOUDY    39  35  84 CALM      30.08S
HILL AFB       CLOUDY    38  37  99 S8        30.07R WCI  32
LOGAN          CLOUDY    39  34  82 S6        30.06R WCI  35
OGDEN          CLOUDY    39  36  89 S8        30.07R WCI  33
PROVO AIRPORT  MOCLDY    37  34  87 CALM      30.10R
SALT LAKE CITY CLOUDY    41  35  79 S6        30.08R
VERNAL         CLOUDY    29  26  89 CALM      30.09S
WENDOVER       CLOUDY    37  28  70 CALM      30.06F
HEBER CITY     CLOUDY    34  32  93 CALM      30.06R
WEST JORDAN    CLOUDY    39  37  93 S10       30.08R WCI  32

$$

UTZ012>022-026-027-210200-

SOUTHERN/CENTRAL UTAH

CITY           SKY/WX    TMP DP  RH WIND       PRES   REMARKS
BLANDING       CLOUDY    32  31  96 CALM      30.19S
BRYCE CANYON   CLOUDY    32  26  78 NW8       30.11S WCI  25
CEDAR CITY     CLOUDY    38  28  67 SW7       30.10R WCI  33
DELTA          CLOUDY    38  33  81 NE5       30.08R WCI  35
MILFORD        CLOUDY    41  30  65 S10       30.07S
MOAB/CYNLANDS  CLOUDY    37  32  82 CALM      30.10F
PRICE          CLOUDY    31  26  82 CALM      30.11R
ST GEORGE      CLOUDY    46  34  61 CALM      30.14R
KANAB            N/A     37  32  81 N3        30.15F

$$

REGIONAL REPORTS     COLORADO/ARIZONA

CITY           SKY/WX    TMP DP  RH WIND       PRES   REMARKS
CRAIG, CO      LGT SNOW  29  27  92 CALM      30.06S FOG
GRAND JUNCTION CLOUDY    34  29  82 NW6       30.11F WCI  29
RIFLE          LGT SNOW  31  28  89 CALM      30.12R FOG
MONTROSE       CLOUDY    34  24  67 NW5       30.12R WCI  30
CORTEZ         CLOUDY    35  28  75 CALM      30.11S
PAGE, AZ       CLOUDY    40  30  67 CALM      30.13F
GRAND CANYON   CLOUDY    35  27  72 CALM      30.14S
KINGMAN        MOCLDY    43  35  73 NE3       30.12R
FLAGSTAFF      CLOUDY    36  27  69 SW7       30.15R WCI  30

$$

REGIONAL REPORTS    NEVADA/IDAHO/WYOMING

CITY           SKY/WX    TMP DP  RH WIND       PRES   REMARKS
LAS VEGAS, NV  CLOUDY    53  37  54 S6        30.09S
ELY            CLOUDY    36  31  82 CALM      30.10S
ELKO           LGT RAIN  37  35  92 SW10      30.06F WCI  30
POCATELLO, ID  CLOUDY    38  34  85 S13       29.99S WCI  30
BURLEY         LGT RAIN  40  35  83 S12       29.96F WCI  33
EVANSTON, WY   CLOUDY    30  28  92 SW12      30.03R WCI  20
ROCK SPRINGS   CLOUDY    30  27  88 SW18      29.99S WCI  18
KEMMERER       CLOUDY    30  28  93 W6        30.00S WCI  24

$$



USA.gov is the U.S. government's official web portal to all federal, state and local government web resources and services.